This is the latest recevied weather packets stored in our database for station/object KJ7HSW. If no packets are shown the sender has not sent any weather packets the latest 10 day(s).
| Time | Temp. | Humidity | Pressure | Rain* | Wind** | Luminosity | Snow |
|---|---|---|---|---|---|---|---|
| 1778079145 | 11.67° C | 91% | 1018.4 hPa | 0 mm | - | 58 W/m² | - |
| 1778078842 | 11.67° C | 91% | 1018.2 hPa | 0 mm | - | 43 W/m² | - |
| 1778078539 | 11.67° C | 92% | 1018.4 hPa | 0 mm | - | 47 W/m² | - |
| 1778078236 | 11.67° C | 91% | 1018.3 hPa | 0 mm | - | 54 W/m² | - |
| 1778077934 | 11.11° C | 92% | 1018.2 hPa | 0 mm | - | 55 W/m² | - |
| 1778077633 | 11.11° C | 92% | 1018.6 hPa | 0 mm | - | 42 W/m² | - |
| 1778077330 | 11.11° C | 93% | 1018.4 hPa | 0 mm | - | 55 W/m² | - |
| 1778077028 | 11.11° C | 93% | 1018.4 hPa | 0 mm | - | 67 W/m² | - |
| 1778076726 | 11.11° C | 94% | 1018.4 hPa | 0 mm | - | 51 W/m² | - |
| 1778076424 | 10.56° C | 94% | 1018.5 hPa | 0 mm | - | 44 W/m² | - |
| 1778076120 | 10.56° C | 94% | 1018.4 hPa | 0 mm | - | 43 W/m² | - |
| 1778075817 | 10.56° C | 95% | 1018.2 hPa | 0 mm | - | 35 W/m² | - |
| 1778075513 | 10.56° C | 95% | 1018.2 hPa | 0 mm | - | 32 W/m² | - |
| 1778075210 | 10.56° C | 95% | 1018.1 hPa | 0 mm | - | 23 W/m² | - |
| 1778074906 | 10.56° C | 95% | 1018.1 hPa | 0 mm | - | 22 W/m² | - |
| 1778074604 | 10.56° C | 95% | 1018.1 hPa | 0 mm | - | 25 W/m² | - |
| 1778074300 | 10° C | 95% | 1017.9 hPa | 0 mm | - | 21 W/m² | - |
| 1778073998 | 10° C | 96% | 1018.1 hPa | 0 mm | - | 18 W/m² | - |
| 1778073694 | 10° C | 96% | 1018 hPa | 0 mm | - | 17 W/m² | - |
| 1778073392 | 10° C | 96% | 1018 hPa | 0 mm | - | 11 W/m² | - |
| 1778073088 | 10° C | 96% | 1018.1 hPa | 0 mm | - | 11 W/m² | - |
| 1778072785 | 9.44° C | 96% | 1018.1 hPa | 0 mm | - | 10 W/m² | - |
| 1778072482 | 9.44° C | 96% | 1017.9 hPa | 0 mm | - | 9 W/m² | - |
| 1778072181 | 9.44° C | 96% | 1017.9 hPa | 0 mm | - | 7 W/m² | - |
| 1778071878 | 9.44° C | 96% | 1018 hPa | 0 mm | - | 6 W/m² | - |
* Rain latest hour (hover to see other rain measurements)
** Current wind speed in m/s (hover to see current wind gust speed)